SAS2406 ESSV-EKCH

Flight info

Callsign SAS2406
Flight time 0h 53m
Altitude 34000
Route HANSA DCT MOVIS DCT KOTAM L990 EKRAL P605 TIDVU
Aircraft A319/M-SDE3FGHIRWY/LB1

Departure

Time 2026-04-25 14:40
Airport Visby Airport (ESSV)

Arrival

Time 2026-04-25 15:33
Airport Copenhagen Kastrup Airport (EKCH)
Time Latitude Longitude Altitude Speed Heading
2026-04-25 14:13 57.66016 18.33925 159 ft 0 kts 335°
2026-04-25 14:31 57.66003 18.33937 131 ft 4 kts 339°
2026-04-25 14:32 57.65978 18.33956 159 ft 4 kts 327°
2026-04-25 14:32 57.65958 18.33981 159 ft 4 kts
2026-04-25 14:32 57.65949 18.33976 159 ft 1 kts 32°
2026-04-25 14:32 57.65948 18.33975 159 ft 0 kts 32°
2026-04-25 14:34 57.65963 18.33993 159 ft 5 kts 32°
2026-04-25 14:35 57.66002 18.34048 159 ft 9 kts 49°
2026-04-25 14:35 57.65998 18.34185 159 ft 13 kts 109°
2026-04-25 14:35 57.65952 18.34342 157 ft 16 kts 142°
2026-04-25 14:35 57.65839 18.34322 157 ft 18 kts 207°
2026-04-25 14:36 57.65740 18.34238 159 ft 14 kts 201°
2026-04-25 14:36 57.65642 18.34168 159 ft 16 kts 201°
2026-04-25 14:36 57.65533 18.34088 159 ft 10 kts 201°
2026-04-25 14:36 57.65458 18.34056 157 ft 9 kts 180°
2026-04-25 14:37 57.65462 18.34002 157 ft 7 kts
2026-04-25 14:37 57.65493 18.34047 158 ft 0 kts 31°
2026-04-25 14:37 57.65499 18.34056 158 ft 2 kts 39°
2026-04-25 14:37 57.65511 18.34069 158 ft 0 kts 28°
2026-04-25 14:39 57.65513 18.34071 158 ft 2 kts 27°
2026-04-25 14:39 57.65685 18.34193 159 ft 58 kts 20°
2026-04-25 14:39 57.66265 18.34610 158 ft 119 kts 20°
2026-04-25 14:39 57.67117 18.35155 607 ft 127 kts 19°
2026-04-25 14:40 57.67966 18.35582 1105 ft 134 kts 347°
2026-04-25 14:40 57.68831 18.35037 1818 ft 131 kts 328°
2026-04-25 14:40 57.69503 18.33688 2145 ft 164 kts 300°
2026-04-25 14:40 57.69624 18.31348 2449 ft 207 kts 253°
2026-04-25 14:41 57.68808 18.28857 2896 ft 244 kts 235°
2026-04-25 14:41 57.67668 18.26303 3630 ft 264 kts 234°
2026-04-25 14:41 57.66427 18.23644 4717 ft 271 kts 233°
2026-04-25 14:41 57.65178 18.20975 5829 ft 275 kts 233°
2026-04-25 14:42 57.63936 18.18296 6897 ft 278 kts 233°
2026-04-25 14:42 57.63086 18.16446 7639 ft 279 kts 234°
2026-04-25 14:42 57.61423 18.12785 9104 ft 280 kts 234°
2026-04-25 14:42 57.60141 18.09936 9993 ft 291 kts 234°
2026-04-25 14:43 57.58719 18.07028 10382 ft 318 kts 226°
2026-04-25 14:43 57.56912 18.04464 10889 ft 335 kts 219°
2026-04-25 14:43 57.55014 18.01956 11702 ft 338 kts 220°
2026-04-25 14:43 57.53105 17.99434 12777 ft 336 kts 220°
2026-04-25 14:44 57.51198 17.96913 13708 ft 337 kts 220°
2026-04-25 14:44 57.49285 17.94385 14546 ft 338 kts 221°
2026-04-25 14:44 57.47398 17.91781 15373 ft 337 kts 226°
2026-04-25 14:44 57.45807 17.88637 16197 ft 332 kts 238°
2026-04-25 14:45 57.44622 17.85004 17037 ft 327 kts 249°
2026-04-25 14:45 57.43868 17.81047 17881 ft 325 kts 258°
2026-04-25 14:45 57.43293 17.76975 18626 ft 327 kts 258°
2026-04-25 14:45 57.42712 17.72889 19377 ft 328 kts 258°
2026-04-25 14:46 57.42125 17.68788 20119 ft 330 kts 258°
2026-04-25 14:46 57.41531 17.64666 20837 ft 332 kts 258°
2026-04-25 14:46 57.40928 17.60516 21540 ft 334 kts 257°
2026-04-25 14:46 57.40320 17.56345 22219 ft 336 kts 257°
2026-04-25 14:47 57.39708 17.52151 22877 ft 338 kts 257°
2026-04-25 14:47 57.39299 17.49355 23286 ft 339 kts 257°
2026-04-25 14:47 57.38468 17.43677 23931 ft 343 kts 257°
2026-04-25 14:47 57.37837 17.39382 24401 ft 347 kts 257°
2026-04-25 14:48 57.37197 17.35047 24853 ft 351 kts 257°
2026-04-25 14:48 57.36548 17.30665 25300 ft 354 kts 257°
2026-04-25 14:48 57.35891 17.26238 25735 ft 358 kts 257°
2026-04-25 14:48 57.35228 17.21776 26163 ft 361 kts 257°
2026-04-25 14:49 57.34559 17.17273 26605 ft 365 kts 257°
2026-04-25 14:49 57.33881 17.12726 27029 ft 368 kts 257°
2026-04-25 14:49 57.33196 17.08142 27447 ft 372 kts 257°
2026-04-25 14:49 57.32499 17.03497 27873 ft 375 kts 257°
2026-04-25 14:50 57.31796 16.98827 28272 ft 379 kts 258°
2026-04-25 14:50 57.31087 16.94115 28663 ft 382 kts 258°
2026-04-25 14:50 57.30371 16.89367 29045 ft 385 kts 258°
2026-04-25 14:50 57.29645 16.84570 29411 ft 389 kts 258°
2026-04-25 14:51 57.28910 16.79744 29755 ft 392 kts 258°
2026-04-25 14:51 57.28163 16.74872 30035 ft 395 kts 258°
2026-04-25 14:51 57.27419 16.70029 30300 ft 398 kts 258°
2026-04-25 14:51 57.26659 16.65088 30561 ft 401 kts 257°
2026-04-25 14:52 57.25891 16.60113 30822 ft 405 kts 257°
2026-04-25 14:52 57.25116 16.55107 31082 ft 408 kts 257°
2026-04-25 14:52 57.24333 16.50068 31434 ft 408 kts 257°
2026-04-25 14:52 57.23806 16.46681 31680 ft 408 kts 258°
2026-04-25 14:53 57.22652 16.40039 32160 ft 413 kts 251°
2026-04-25 14:53 57.21259 16.35357 32515 ft 421 kts 241°
2026-04-25 14:53 57.19364 16.31186 32871 ft 430 kts 230°
2026-04-25 14:53 57.17044 16.27625 33239 ft 436 kts 224°
2026-04-25 14:54 57.14641 16.24183 33568 ft 438 kts 224°
2026-04-25 14:54 57.12237 16.20747 33629 ft 438 kts 224°
2026-04-25 14:54 57.07429 16.13887 33639 ft 438 kts 224°
2026-04-25 14:55 57.02616 16.07031 33635 ft 438 kts 225°
2026-04-25 14:55 56.97808 16.00181 33636 ft 437 kts 225°
2026-04-25 14:56 56.92991 15.93356 33638 ft 437 kts 224°
2026-04-25 14:56 56.88177 15.86559 33643 ft 438 kts 224°
2026-04-25 14:57 56.83351 15.79765 33643 ft 438 kts 225°
2026-04-25 14:57 56.78518 15.72995 33645 ft 438 kts 224°
2026-04-25 14:58 56.73690 15.66244 33648 ft 438 kts 225°
2026-04-25 14:58 56.68845 15.59492 33653 ft 438 kts 225°
2026-04-25 14:59 56.63992 15.52777 33656 ft 438 kts 224°
2026-04-25 14:59 56.59144 15.46067 33658 ft 438 kts 225°
2026-04-25 15:00 56.54291 15.39376 33660 ft 438 kts 225°
2026-04-25 15:00 56.49438 15.32702 33666 ft 438 kts 225°
2026-04-25 15:01 56.44578 15.26032 33652 ft 440 kts 225°
2026-04-25 15:01 56.39709 15.19384 33667 ft 438 kts 225°
2026-04-25 15:02 56.34840 15.12761 33669 ft 438 kts 225°
2026-04-25 15:02 56.29975 15.06151 33670 ft 438 kts 225°
2026-04-25 15:03 56.25110 14.99572 33668 ft 438 kts 225°
2026-04-25 15:03 56.20237 14.93017 33668 ft 437 kts 225°
2026-04-25 15:04 56.15369 14.86472 33669 ft 435 kts 226°
2026-04-25 15:04 56.11309 14.78783 33678 ft 418 kts 242°
2026-04-25 15:05 56.07933 14.70308 33685 ft 418 kts 242°
2026-04-25 15:06 56.02848 14.57768 33006 ft 410 kts 242°
2026-04-25 15:06 56.01176 14.53653 32375 ft 408 kts 242°
2026-04-25 15:06 55.99516 14.49561 31724 ft 406 kts 242°
2026-04-25 15:06 55.97887 14.45543 31070 ft 404 kts 243°
2026-04-25 15:07 55.96252 14.41516 30582 ft 397 kts 243°
2026-04-25 15:07 55.94637 14.37562 30107 ft 391 kts 243°
2026-04-25 15:07 55.93047 14.33682 29583 ft 385 kts 243°
2026-04-25 15:07 55.91477 14.29858 28998 ft 379 kts 243°
2026-04-25 15:08 55.89932 14.26089 28406 ft 374 kts 244°
2026-04-25 15:08 55.88412 14.22376 27825 ft 369 kts 244°
2026-04-25 15:08 55.86907 14.18705 27245 ft 364 kts 244°
2026-04-25 15:08 55.85423 14.15098 26678 ft 359 kts 244°
2026-04-25 15:09 55.83955 14.11538 26107 ft 354 kts 244°
2026-04-25 15:09 55.82505 14.08028 25549 ft 350 kts 244°
2026-04-25 15:09 55.79658 14.01145 24475 ft 341 kts 245°
2026-04-25 15:10 55.78722 13.98902 24124 ft 340 kts 243°
2026-04-25 15:10 55.76395 13.94867 23220 ft 363 kts 229°
2026-04-25 15:10 55.72040 13.89979 21538 ft 372 kts 224°
2026-04-25 15:11 55.69843 13.87548 20747 ft 373 kts 224°
2026-04-25 15:11 55.68388 13.85931 20234 ft 373 kts 224°
2026-04-25 15:11 55.66190 13.83480 19484 ft 374 kts 224°
2026-04-25 15:12 55.61767 13.78539 17804 ft 379 kts 223°
2026-04-25 15:12 55.59530 13.76044 16846 ft 381 kts 223°
2026-04-25 15:12 55.57278 13.73544 16091 ft 379 kts 223°
2026-04-25 15:12 55.55807 13.71925 15737 ft 373 kts 222°
2026-04-25 15:13 55.52895 13.68743 15047 ft 361 kts 222°
2026-04-25 15:13 55.48737 13.64178 14063 ft 342 kts 224°
2026-04-25 15:13 55.47046 13.61484 13557 ft 316 kts 242°
2026-04-25 15:14 55.46079 13.58224 12964 ft 297 kts 259°
2026-04-25 15:14 55.45784 13.54729 12378 ft 284 kts 275°
2026-04-25 15:14 55.46117 13.51365 11798 ft 277 kts 290°
2026-04-25 15:14 55.47006 13.48379 11227 ft 276 kts 305°
2026-04-25 15:15 55.48370 13.46001 10669 ft 278 kts 319°
2026-04-25 15:15 55.49903 13.43961 10358 ft 273 kts 319°
2026-04-25 15:15 55.51379 13.41982 10224 ft 260 kts 319°
2026-04-25 15:15 55.52780 13.40096 10085 ft 248 kts 318°
2026-04-25 15:16 55.54129 13.38269 9883 ft 240 kts 318°
2026-04-25 15:16 55.55446 13.36474 9761 ft 238 kts 318°
2026-04-25 15:16 55.58061 13.32896 9274 ft 237 kts 318°
2026-04-25 15:17 55.60668 13.29339 8522 ft 236 kts 319°
2026-04-25 15:17 55.61968 13.27558 8138 ft 236 kts 318°
2026-04-25 15:17 55.63073 13.25460 7837 ft 231 kts 303°
2026-04-25 15:18 55.63955 13.23072 7783 ft 233 kts 303°
2026-04-25 15:18 55.65752 13.18284 7585 ft 233 kts 303°
2026-04-25 15:18 55.66653 13.15891 7468 ft 233 kts 303°
2026-04-25 15:19 55.67552 13.13502 7354 ft 234 kts 303°
2026-04-25 15:19 55.68150 13.11916 7280 ft 234 kts 303°
2026-04-25 15:19 55.69356 13.08699 7129 ft 234 kts 303°
2026-04-25 15:19 55.70254 13.06293 7017 ft 234 kts 303°
2026-04-25 15:20 55.71146 13.03884 6921 ft 234 kts 303°
2026-04-25 15:20 55.72042 13.01475 6809 ft 234 kts 303°
2026-04-25 15:20 55.72938 12.99066 6697 ft 234 kts 303°
2026-04-25 15:20 55.73830 12.96662 6588 ft 234 kts 303°
2026-04-25 15:21 55.74724 12.94251 6478 ft 234 kts 303°
2026-04-25 15:21 55.75614 12.91839 6366 ft 234 kts 303°
2026-04-25 15:21 55.76465 12.89382 6247 ft 234 kts 295°
2026-04-25 15:21 55.76677 12.86516 6136 ft 243 kts 266°
2026-04-25 15:22 55.75912 12.83781 6001 ft 261 kts 233°
2026-04-25 15:22 55.74428 12.81821 5860 ft 269 kts 221°
2026-04-25 15:22 55.72859 12.80006 5713 ft 269 kts 220°
2026-04-25 15:22 55.71221 12.78459 5567 ft 278 kts 204°
2026-04-25 15:23 55.69256 12.78344 5412 ft 294 kts 171°
2026-04-25 15:23 55.67472 12.80130 5259 ft 302 kts 135°
2026-04-25 15:23 55.66221 12.83120 5117 ft 303 kts 123°
2026-04-25 15:23 55.65063 12.86239 4959 ft 302 kts 122°
2026-04-25 15:24 55.63925 12.89365 4809 ft 302 kts 122°
2026-04-25 15:24 55.62790 12.92486 4649 ft 301 kts 122°
2026-04-25 15:24 55.61646 12.95554 4508 ft 294 kts 123°
2026-04-25 15:24 55.60884 12.97558 4415 ft 288 kts 123°
2026-04-25 15:25 55.59424 13.01355 4234 ft 276 kts 124°
2026-04-25 15:25 55.58354 13.04107 4034 ft 269 kts 125°
2026-04-25 15:25 55.57026 13.06342 3720 ft 261 kts 155°
2026-04-25 15:25 55.55336 13.07132 3412 ft 245 kts 189°
2026-04-25 15:26 55.53785 13.06358 3112 ft 225 kts 220°
2026-04-25 15:26 55.52485 13.04863 2974 ft 222 kts 225°
2026-04-25 15:26 55.51379 13.03075 2979 ft 208 kts 242°
2026-04-25 15:26 55.50716 13.00976 2975 ft 184 kts 258°
2026-04-25 15:27 55.50457 12.98922 2980 ft 163 kts 272°
2026-04-25 15:27 55.50506 12.96993 2996 ft 154 kts 285°
2026-04-25 15:27 55.51318 12.93707 3012 ft 140 kts 304°
2026-04-25 15:28 55.51866 12.92245 3004 ft 147 kts 304°
2026-04-25 15:28 55.52434 12.90731 3003 ft 149 kts 304°
2026-04-25 15:28 55.53004 12.89206 2986 ft 149 kts 304°
2026-04-25 15:28 55.53575 12.87679 2867 ft 149 kts 303°
2026-04-25 15:29 55.54145 12.86155 2692 ft 148 kts 303°
2026-04-25 15:29 55.54711 12.84639 2503 ft 148 kts 303°
2026-04-25 15:29 55.55276 12.83125 2302 ft 147 kts 303°
2026-04-25 15:29 55.55842 12.81609 2099 ft 147 kts 303°
2026-04-25 15:30 55.56387 12.80145 1897 ft 138 kts 303°
2026-04-25 15:30 55.56894 12.78785 1724 ft 126 kts 303°
2026-04-25 15:30 55.57364 12.77523 1550 ft 121 kts 303°
2026-04-25 15:30 55.57821 12.76295 1387 ft 119 kts 303°
2026-04-25 15:31 55.58272 12.75083 1225 ft 118 kts 303°
2026-04-25 15:31 55.58721 12.73865 1046 ft 119 kts 302°
2026-04-25 15:31 55.59172 12.72644 882 ft 119 kts 302°
2026-04-25 15:31 55.59630 12.71411 690 ft 121 kts 302°
2026-04-25 15:32 55.60093 12.70161 499 ft 121 kts 303°
2026-04-25 15:32 55.60552 12.68925 328 ft 122 kts 303°
2026-04-25 15:32 55.61006 12.67712 193 ft 120 kts 303°
2026-04-25 15:33 55.61886 12.65337 22 ft 99 kts 303°
2026-04-25 15:33 55.62172 12.64572 24 ft 50 kts 303°
2026-04-25 15:33 55.62298 12.64242 22 ft 31 kts 304°
2026-04-25 15:33 55.62435 12.63872 22 ft 40 kts 308°
2026-04-25 15:34 55.62618 12.63784 24 ft 22 kts 13°
2026-04-25 15:34 55.62714 12.63896 24 ft 17 kts 57°
2026-04-25 15:34 55.62664 12.64052 25 ft 17 kts 130°
2026-04-25 15:34 55.62615 12.64164 24 ft 18 kts 123°
2026-04-25 15:35 55.62714 12.64351 25 ft 4 kts 37°
2026-04-25 15:35 55.62719 12.64420 24 ft 7 kts 98°
2026-04-25 15:35 55.62714 12.64456 25 ft 2 kts 102°
2026-04-25 15:36 55.62713 12.64462 25 ft 0 kts 102°